Theta_e
312 312 312 312 312 313 313 314 317 318 317 317 312 312 314 314 315 317 321 318 320 325 332 333 328 328 331 329
312 311 311 311 312 312 313 314 316 318 316 312 315 315 316 316 315 316 317 321 323 324 327 327 328 330 331 332
312 312 312 312 312 312 313 314 317 317 318 317 317 316 316 316 315 315 317 321 323 326 333 329 329 332 333 336
312 312 312 311 315 315 316 317 317 316 315 318 315 314 316 315 315 317 317 320 324 328 333 330 334 332 334 335
311 311 309 317 313 317 317 315 317 316 316 315 314 314 316 314 315 317 321 323 327 331 334 332 333 331 331 334
311 312 313 316 316 315 318 317 317 317 316 317 316 315 316 314 316 321 323 325 329 329 331 333 334 335 335 337
311 316 317 316 316 316 318 320 320 319 319 318 318 317 315 315 319 321 324 326 327 329 332 332 334 334 334 334
316 314 318 317 314 316 321 322 320 319 317 319 321 317 318 319 319 321 323 326 328 329 331 333 333 334 330 331
311 313 318 315 315 317 323 320 319 317 318 320 320 317 318 320 321 322 325 331 330 329 332 334 331 333 327 328
313 317 316 315 316 327 327 321 319 320 319 319 320 318 319 319 320 323 325 327 325 326 323 323 327 323 323 323
314 313 314 315 323 326 322 321 321 320 322 322 320 317 318 320 322 325 326 323 321 321 325 323 323 321 321 323
310 310 315 317 327 320 321 320 322 321 323 322 320 318 318 320 321 320 325 322 322 321 323 325 320 322 319 323
314 316 313 321 323 319 320 321 320 322 323 323 321 319 318 319 315 318 323 327 319 317 317 319 319 321 320 318
315 316 316 320 318 317 320 321 322 322 324 322 323 319 320 317 318 314 314 319 317 316 316 316 316 318 317 315
315 313 318 316 317 315 316 318 322 323 322 325 321 321 320 317 313 315 313 315 318 317 315 316 317 314 317 316
313 313 314 317 314 316 315 315 316 318 321 318 319 320 322 320 313 313 314 313 314 314 314 311 311 314 316 314
312 312 312 314 315 315 315 315 316 316 316 319 321 321 317 312 312 314 315 312 313 312 312 311 309 312 314 315
Wind_Speed
14 15 17 17 18 19 19 18 16 12 8 24 19 21 25 25 22 13 7 23 25 3 3 4 6 4 5 4
13 17 21 21 20 20 19 17 13 9 8 25 21 24 23 24 20 18 17 23 24 9 4 5 3 5 5 4
16 19 21 21 20 17 17 14 7 5 10 17 11 19 20 16 19 22 19 16 10 8 5 8 3 1 5 4
17 21 23 22 14 13 10 7 9 5 8 7 24 32 17 18 10 9 5 4 5 4 3 5 11 5 4 3
18 20 24 9 7 2 3 7 6 6 15 15 30 13 15 12 7 4 5 4 3 7 5 6 6 7 8 10
17 18 11 5 5 7 11 15 20 19 32 23 10 15 8 6 6 5 5 2 7 8 10 14 16 13 6 4
20 10 9 13 14 16 4 10 5 6 7 4 7 12 5 3 3 5 6 5 7 11 9 15 17 15 8 6
8 16 3 15 18 10 2 5 2 4 4 2 4 3 4 1 3 8 5 6 5 13 14 11 10 11 5 8
16 9 8 19 15 4 5 9 1 3 4 2 4 4 5 5 3 1 5 4 5 3 5 3 2 4 5 9
10 12 17 22 9 3 3 5 4 3 2 4 3 2 3 3 4 2 4 2 3 2 3 1 4 7 7 8
4 11 19 8 4 2 3 7 6 11 1 5 5 2 1 2 1 2 4 6 2 3 3 6 5 6 6 3
17 14 12 3 1 3 3 5 7 9 6 6 5 2 0 4 3 3 1 3 1 4 2 4 5 4 6 5
4 0 3 1 4 3 3 3 5 6 5 5 3 5 2 3 3 3 3 1 1 2 5 3 4 4 2 4
5 5 3 5 3 2 5 3 3 3 3 3 5 6 2 3 3 2 1 3 3 2 2 2 2 2 3 3
12 4 3 6 4 3 4 4 5 7 7 3 3 4 3 4 5 6 5 2 3 3 3 2 5 1 1 1
3 3 3 5 3 0 2 3 2 6 9 5 2 2 2 2 5 3 4 5 2 2 2 0 0 1 3 5
2 3 6 10 8 2 4 1 3 1 3 3 1 4 4 2 5 5 0 4 2 2 5 5 4 1 3 3
Wind_Direction
309 305 302 299 297 299 301 306 313 322 270 251 271 277 277 281 289 288 208 220 240 273 248 188 184 120 100 116
310 307 304 297 296 297 300 302 307 302 257 282 299 278 283 283 277 271 261 224 239 242 218 152 56 116 87 112
320 318 314 304 297 301 298 300 294 199 265 308 270 287 258 245 272 277 266 237 243 228 206 140 101 219 166 148
321 323 321 320 315 293 304 257 253 294 258 291 310 310 240 222 245 264 264 231 214 152 152 138 185 163 159 192
324 327 338 353 12 10 252 219 227 246 285 294 309 292 203 204 230 228 184 220 135 201 194 151 187 184 188 191
324 326 336 332 356 307 306 275 248 252 257 267 296 306 198 164 162 188 168 82 209 222 185 192 208 228 193 132
326 343 317 337 358 354 293 296 232 227 237 237 227 284 123 189 188 174 177 165 217 224 219 207 210 226 189 188
332 333 296 340 344 13 318 274 243 269 231 210 267 187 60 138 285 192 161 216 269 225 220 249 215 219 221 147
310 315 316 337 341 90 19 317 260 250 272 262 268 6 118 6 319 332 129 248 257 200 191 176 104 216 87 139
314 309 333 326 320 46 303 336 319 300 302 298 303 208 24 65 229 237 73 154 228 323 102 152 161 153 77 42
259 308 332 332 8 133 258 302 345 347 284 299 355 133 127 271 90 63 84 264 344 90 102 89 358 78 85 47
303 303 327 50 326 6 91 43 356 340 360 327 335 358 114 304 4 87 215 127 331 12 251 156 175 156 148 151
32 326 32 3 243 339 35 128 47 13 331 305 328 338 158 156 56 51 144 273 325 331 52 18 107 237 178 195
147 150 40 251 262 142 122 76 131 81 281 282 351 1 350 355 60 35 336 258 84 352 268 30 30 168 194 78
139 67 248 249 322 196 168 203 199 187 250 317 293 338 328 24 32 327 310 305 119 275 67 198 197 356 38 76
71 202 249 260 304 137 173 271 234 225 202 183 336 277 325 315 45 323 346 1 98 152 217 258 109 216 204 147
184 238 289 304 302 256 240 134 290 5 325 224 224 220 113 268 350 19 88 354 260 76 348 350 349 223 211 132